Time,TemperatureF,DewpointF,PressureIn,WindDirection,WindDirectionDegrees,WindSpeedMPH,WindSpeedGustMPH,Humidity,HourlyPrecipIn,Conditions,Clouds,dailyrainin,SoftwareType,DateUTC
2013-05-27 00:02:00,56.6,56.3,30.01,ESE,102,7.5,12.7,99,0.01,RA,,0.00,WeatherDisplay:10.37,2013-05-27 05:02:00,
2013-05-27 00:07:00,56.7,56.4,30.01,ESE,103,8.0,11.5,99,0.00,RA,,0.00,WeatherDisplay:10.37,2013-05-27 05:07:00,
2013-05-27 00:12:00,56.7,56.4,30.01,ESE,105,8.4,11.5,99,0.00,,,0.00,WeatherDisplay:10.37,2013-05-27 05:12:00,
2013-05-27 00:17:00,56.7,56.4,30.02,ESE,113,8.9,11.5,99,0.00,,,0.00,WeatherDisplay:10.37,2013-05-27 05:17:00,
2013-05-27 00:22:00,56.7,56.4,30.02,ESE,115,3.1,6.9,99,0.00,,,0.00,WeatherDisplay:10.37,2013-05-27 05:22:00,
2013-05-27 00:27:00,56.7,56.4,30.02,ESE,102,2.4,4.6,99,0.00,,,0.00,WeatherDisplay:10.37,2013-05-27 05:27:00,
2013-05-27 00:32:00,56.7,56.4,30.02,ESE,110,2.8,4.6,99,0.00,,,0.00,WeatherDisplay:10.37,2013-05-27 05:32:00,
2013-05-27 00:37:00,56.7,56.4,30.01,SE,135,3.0,6.9,99,0.00,,,0.00,WeatherDisplay:10.37,2013-05-27 05:37:00,
2013-05-27 00:42:00,56.7,56.4,30.00,SE,130,2.3,5.8,99,0.00,,,0.00,WeatherDisplay:10.37,2013-05-27 05:42:00,
2013-05-27 00:47:00,56.7,56.4,30.00,SSE,162,0.2,1.1,99,0.00,,,0.00,WeatherDisplay:10.37,2013-05-27 05:47:00,
2013-05-27 00:52:00,56.6,56.3,30.01,SE,132,0.4,3.5,99,0.00,,,0.00,WeatherDisplay:10.37,2013-05-27 05:52:00,
2013-05-27 00:57:00,56.7,56.4,30.01,ESE,117,1.2,3.5,99,0.00,,,0.00,WeatherDisplay:10.37,2013-05-27 05:57:00,
2013-05-27 01:02:00,56.6,56.3,30.01,ESE,102,1.3,3.5,99,0.00,,,0.00,WeatherDisplay:10.37,2013-05-27 06:02:00,
2013-05-27 01:07:00,56.6,56.3,30.01,NE,35,2.5,4.6,99,0.00,,,0.00,WeatherDisplay:10.37,2013-05-27 06:07:00,
2013-05-27 01:12:00,56.6,56.3,30.01,ESE,122,4.9,9.2,99,0.00,,,0.00,WeatherDisplay:10.37,2013-05-27 06:12:00,
2013-05-27 01:17:00,56.6,56.3,30.01,ENE,74,1.3,3.5,99,0.00,,,0.00,WeatherDisplay:10.37,2013-05-27 06:17:00,
2013-05-27 01:22:00,56.5,56.2,30.01,East,98,2.5,9.0,99,0.00,,,0.00,WeatherDisplay:10.37,2013-05-27 06:22:00,
2013-05-27 01:27:00,56.5,56.2,30.00,ESE,105,9.6,13.0,99,0.00,,,0.00,WeatherDisplay:10.37,2013-05-27 06:27:00,
2013-05-27 01:32:00,56.5,56.2,30.00,East,98,9.4,13.0,99,0.00,,,0.00,WeatherDisplay:10.37,2013-05-27 06:32:00,
2013-05-27 01:37:00,56.6,56.3,30.00,ESE,122,8.6,11.5,99,0.00,,,0.00,WeatherDisplay:10.37,2013-05-27 06:37:00,
2013-05-27 01:42:00,56.6,56.3,30.01,NE,51,1.1,2.0,99,0.00,,,0.00,WeatherDisplay:10.37,2013-05-27 06:42:00,
2013-05-27 01:47:00,56.7,56.4,30.00,SE,136,2.5,4.6,99,0.00,,,0.00,WeatherDisplay:10.37,2013-05-27 06:47:00,
2013-05-27 01:52:00,56.7,56.4,30.00,ESE,121,3.1,8.1,99,0.00,,,0.00,WeatherDisplay:10.37,2013-05-27 06:52:00,
2013-05-27 01:57:00,56.8,56.5,30.00,East,101,7.3,11.5,99,0.00,,,0.00,WeatherDisplay:10.37,2013-05-27 06:57:00,
2013-05-27 02:02:00,56.8,56.5,30.00,SE,132,5.7,11.5,99,0.00,,,0.00,WeatherDisplay:10.37,2013-05-27 07:02:00,
2013-05-27 02:07:00,56.8,56.5,30.00,ESE,111,6.0,8.1,99,0.00,,,0.00,WeatherDisplay:10.37,2013-05-27 07:07:00,
2013-05-27 02:12:00,56.8,56.5,30.00,East,96,0.7,1.1,99,0.00,,,0.00,WeatherDisplay:10.37,2013-05-27 07:12:00,
2013-05-27 02:17:00,56.8,56.5,30.00,SE,131,0.7,2.3,99,0.00,,,0.00,WeatherDisplay:10.37,2013-05-27 07:17:00,
2013-05-27 02:23:00,56.8,56.5,30.00,East,82,2.2,4.0,99,0.00,,,0.00,WeatherDisplay:10.37,2013-05-27 07:23:00,
2013-05-27 02:28:00,56.8,56.5,29.99,NE,37,2.5,5.0,99,0.00,,,0.00,WeatherDisplay:10.37,2013-05-27 07:28:00,
2013-05-27 02:33:00,56.9,56.6,29.99,ENE,65,0.6,3.5,99,0.00,,,0.00,WeatherDisplay:10.37,2013-05-27 07:33:00,
2013-05-27 02:38:00,56.9,56.6,29.99,East,98,1.7,3.5,99,0.00,,,0.00,WeatherDisplay:10.37,2013-05-27 07:38:00,
2013-05-27 02:43:00,56.9,56.6,29.98,SE,131,3.2,8.1,99,0.00,,,0.00,WeatherDisplay:10.37,2013-05-27 07:43:00,
2013-05-27 02:48:00,56.9,56.6,29.99,ESE,123,0.5,2.3,99,0.00,,,0.00,WeatherDisplay:10.37,2013-05-27 07:48:00,
2013-05-27 02:53:00,56.8,56.5,29.99,East,89,0.0,1.1,99,0.00,,,0.00,WeatherDisplay:10.37,2013-05-27 07:53:00,
2013-05-27 02:58:00,56.9,56.6,29.99,NE,53,0.1,1.1,99,0.00,,,0.00,WeatherDisplay:10.37,2013-05-27 07:58:00,
2013-05-27 03:03:00,56.9,56.6,29.99,ENE,77,0.0,1.1,99,0.00,,,0.00,WeatherDisplay:10.37,2013-05-27 08:03:00,
2013-05-27 03:08:00,56.9,56.6,29.99,ESE,110,1.2,2.3,99,0.00,,,0.00,WeatherDisplay:10.37,2013-05-27 08:08:00,
2013-05-27 03:13:00,56.9,56.6,29.99,ESE,108,2.9,4.6,99,0.00,,,0.00,WeatherDisplay:10.37,2013-05-27 08:13:00,
2013-05-27 03:18:00,56.9,56.6,29.99,SE,131,1.9,3.5,99,0.00,,,0.00,WeatherDisplay:10.37,2013-05-27 08:18:00,
2013-05-27 03:23:00,56.9,56.6,29.98,SE,136,4.4,5.0,99,0.00,,,0.00,WeatherDisplay:10.37,2013-05-27 08:23:00,
2013-05-27 03:28:00,57.0,56.7,29.97,ESE,123,7.9,9.2,99,0.01,RA,,0.01,WeatherDisplay:10.37,2013-05-27 08:28:00,
2013-05-27 03:33:00,57.3,57.0,29.97,ESE,120,7.5,11.5,99,0.01,RA,,0.01,WeatherDisplay:10.37,2013-05-27 08:33:00,
2013-05-27 03:38:00,57.6,57.3,29.98,SE,126,4.3,5.8,99,0.02,RA,,0.02,WeatherDisplay:10.37,2013-05-27 08:38:00,
2013-05-27 03:43:00,57.8,57.5,29.98,ESE,123,6.0,9.2,99,0.03,RA,,0.03,WeatherDisplay:10.37,2013-05-27 08:43:00,
2013-05-27 03:48:00,57.8,57.5,29.97,ESE,122,6.8,8.1,99,0.05,RA,,0.05,WeatherDisplay:10.37,2013-05-27 08:48:00,
2013-05-27 03:53:00,57.9,57.6,29.97,SE,125,7.9,11.5,99,0.07,RA,,0.07,WeatherDisplay:10.37,2013-05-27 08:53:00,
2013-05-27 03:58:00,57.9,57.6,29.96,ESE,113,7.5,9.2,99,0.08,RA,,0.08,WeatherDisplay:10.37,2013-05-27 08:58:00,
2013-05-27 04:03:00,57.9,57.6,29.96,SE,127,7.9,10.4,99,0.09,RA,,0.09,WeatherDisplay:10.37,2013-05-27 09:03:00,
2013-05-27 04:08:00,57.9,57.6,29.95,SE,131,7.3,10.4,99,0.10,RA,,0.10,WeatherDisplay:10.37,2013-05-27 09:08:00,
2013-05-27 04:13:00,57.9,57.6,29.95,SE,125,8.4,11.5,99,0.12,RA,,0.12,WeatherDisplay:10.37,2013-05-27 09:13:00,
2013-05-27 04:18:00,57.9,57.6,29.94,SE,131,7.9,11.5,99,0.14,RA,,0.14,WeatherDisplay:10.37,2013-05-27 09:18:00,
2013-05-27 04:23:00,57.9,57.6,29.94,SE,134,9.1,10.4,99,0.15,RA,,0.15,WeatherDisplay:10.37,2013-05-27 09:23:00,
2013-05-27 04:28:00,57.9,57.6,29.94,SE,130,8.1,10.4,99,0.15,RA,,0.16,WeatherDisplay:10.37,2013-05-27 09:28:00,
2013-05-27 04:34:00,57.9,57.6,29.94,ESE,115,9.4,11.5,99,0.15,RA,,0.16,WeatherDisplay:10.37,2013-05-27 09:34:00,
2013-05-27 04:39:00,57.9,57.6,29.93,ESE,118,8.1,11.5,99,0.15,RA,,0.17,WeatherDisplay:10.37,2013-05-27 09:39:00,
2013-05-27 04:44:00,57.9,57.6,29.94,ESE,108,4.9,7.0,99,0.14,RA,,0.17,WeatherDisplay:10.37,2013-05-27 09:44:00,
2013-05-27 04:49:00,57.9,57.6,29.93,East,96,5.9,10.4,99,0.12,,,0.17,WeatherDisplay:10.37,2013-05-27 09:49:00,
2013-05-27 04:54:00,57.9,57.6,29.93,SE,126,5.5,8.1,99,0.10,,,0.17,WeatherDisplay:10.37,2013-05-27 09:54:00,
2013-05-27 04:59:00,57.9,57.6,29.93,ESE,104,6.6,9.2,99,0.09,,,0.17,WeatherDisplay:10.37,2013-05-27 09:59:00,
2013-05-27 05:04:00,57.9,57.6,29.94,ESE,113,3.6,8.1,99,0.08,,,0.17,WeatherDisplay:10.37,2013-05-27 10:04:00,
2013-05-27 05:09:00,57.9,57.6,29.93,NE,36,0.3,2.3,99,0.06,,,0.17,WeatherDisplay:10.37,2013-05-27 10:09:00,
2013-05-27 05:14:00,57.9,57.6,29.94,ESE,122,2.9,4.0,99,0.05,,,0.17,WeatherDisplay:10.37,2013-05-27 10:14:00,
2013-05-27 05:19:00,57.9,57.6,29.93,East,87,5.9,10.4,99,0.03,,,0.17,WeatherDisplay:10.37,2013-05-27 10:19:00,
2013-05-27 05:24:00,57.9,57.6,29.94,NNW,347,1.6,4.6,99,0.02,,,0.17,WeatherDisplay:10.37,2013-05-27 10:24:00,
2013-05-27 05:29:00,57.9,57.6,29.94,NE,47,0.8,3.5,99,0.01,,,0.17,WeatherDisplay:10.37,2013-05-27 10:29:00,
2013-05-27 05:34:00,57.9,57.6,29.94,SE,126,0.4,1.1,99,0.01,,,0.17,WeatherDisplay:10.37,2013-05-27 10:34:00,
2013-05-27 05:39:00,58.0,57.7,29.94,North,352,0.1,1.1,99,0.00,,,0.17,WeatherDisplay:10.37,2013-05-27 10:39:00,
2013-05-27 05:44:00,58.0,57.7,29.94,NE,41,2.5,4.6,99,0.00,,,0.17,WeatherDisplay:10.37,2013-05-27 10:44:00,
2013-05-27 05:49:00,58.0,57.7,29.94,SE,125,0.6,2.3,99,0.00,,,0.17,WeatherDisplay:10.37,2013-05-27 10:49:00,
2013-05-27 05:54:00,58.1,57.8,29.94,ESE,118,4.8,6.9,99,0.00,,,0.17,WeatherDisplay:10.37,2013-05-27 10:54:00,
2013-05-27 05:59:00,58.1,57.8,29.94,East,98,4.7,6.9,99,0.00,,,0.17,WeatherDisplay:10.37,2013-05-27 10:59:00,
2013-05-27 06:04:00,58.2,57.9,29.94,ESE,111,2.6,3.5,99,0.00,,,0.17,WeatherDisplay:10.37,2013-05-27 11:04:00,
2013-05-27 06:09:00,58.1,57.8,29.94,ESE,108,4.0,5.0,99,0.00,,,0.17,WeatherDisplay:10.37,2013-05-27 11:09:00,
2013-05-27 06:14:00,58.2,57.9,29.94,ESE,108,6.0,6.9,99,0.00,,,0.17,WeatherDisplay:10.37,2013-05-27 11:14:00,
2013-05-27 06:19:00,58.2,57.9,29.93,ESE,107,7.5,10.4,99,0.00,,,0.17,WeatherDisplay:10.37,2013-05-27 11:19:00,
2013-05-27 06:24:00,58.3,58.0,29.93,ESE,108,8.3,11.5,99,0.00,,,0.17,WeatherDisplay:10.37,2013-05-27 11:24:00,
2013-05-27 06:29:00,58.3,58.0,29.93,East,94,7.8,10.4,99,0.00,,,0.17,WeatherDisplay:10.37,2013-05-27 11:29:00,
2013-05-27 06:34:00,58.4,58.1,29.93,East,91,4.3,8.1,99,0.00,,,0.17,WeatherDisplay:10.37,2013-05-27 11:34:00,
2013-05-27 06:39:00,58.5,58.2,29.94,ENE,71,0.5,3.5,99,0.00,,,0.17,WeatherDisplay:10.37,2013-05-27 11:39:00,
2013-05-27 06:44:00,58.4,58.1,29.94,East,99,6.6,8.1,99,0.00,,,0.17,WeatherDisplay:10.37,2013-05-27 11:44:00,
2013-05-27 06:49:00,58.5,58.2,29.94,ESE,105,3.8,9.2,99,0.00,,,0.17,WeatherDisplay:10.37,2013-05-27 11:49:00,
2013-05-27 06:54:00,58.6,58.3,29.94,East,88,0.4,1.1,99,0.00,,,0.17,WeatherDisplay:10.37,2013-05-27 11:54:00,
2013-05-27 06:59:00,58.6,58.3,29.94,ESE,120,2.5,3.5,99,0.00,,,0.17,WeatherDisplay:10.37,2013-05-27 11:59:00,
2013-05-27 07:04:00,58.7,58.4,29.94,SE,124,2.2,5.8,99,0.00,CLR,,0.17,WeatherDisplay:10.37,2013-05-27 12:04:00,
2013-05-27 07:09:00,58.8,58.5,29.94,East,100,0.3,1.1,99,0.00,CLR,,0.17,WeatherDisplay:10.37,2013-05-27 12:09:00,
2013-05-27 07:14:00,58.8,58.5,29.94,ENE,65,1.2,3.5,99,0.00,CLR,,0.17,WeatherDisplay:10.37,2013-05-27 12:14:00,
2013-05-27 07:20:00,58.9,58.6,29.95,NW,322,0.6,1.1,99,0.00,CLR,,0.17,WeatherDisplay:10.37,2013-05-27 12:20:00,
2013-05-27 07:25:00,58.9,58.6,29.95,ESE,119,1.5,3.5,99,0.00,CLR,,0.17,WeatherDisplay:10.37,2013-05-27 12:25:00,
2013-05-27 07:30:00,58.9,58.6,29.95,SE,131,4.0,6.9,99,0.00,CLR,,0.17,WeatherDisplay:10.37,2013-05-27 12:30:00,
2013-05-27 07:35:00,59.0,58.7,29.95,East,95,3.1,4.6,99,0.00,CLR,,0.17,WeatherDisplay:10.37,2013-05-27 12:35:00,
2013-05-27 07:40:00,59.0,58.7,29.95,ESE,109,5.4,6.9,99,0.00,CLR,,0.17,WeatherDisplay:10.37,2013-05-27 12:40:00,
2013-05-27 07:45:00,59.1,58.8,29.95,ESE,111,5.0,7.0,99,0.00,CLR,,0.17,WeatherDisplay:10.37,2013-05-27 12:45:00,
2013-05-27 07:50:00,59.2,58.9,29.96,ESE,117,3.1,4.0,99,0.00,CLR,,0.17,WeatherDisplay:10.37,2013-05-27 12:50:00,
2013-05-27 07:55:00,59.3,59.0,29.97,SE,143,2.2,2.3,99,0.00,CLR,,0.17,WeatherDisplay:10.37,2013-05-27 12:55:00,
2013-05-27 08:00:00,59.3,59.0,29.97,ESE,120,2.9,4.6,99,0.00,CLR,,0.17,WeatherDisplay:10.37,2013-05-27 13:00:00,
2013-05-27 08:05:00,59.4,59.1,29.97,ESE,117,2.0,4.0,99,0.00,CLR,,0.17,WeatherDisplay:10.37,2013-05-27 13:05:00,
2013-05-27 08:10:00,59.4,59.1,29.98,SE,125,3.1,3.5,99,0.00,CLR,,0.17,WeatherDisplay:10.37,2013-05-27 13:10:00,
2013-05-27 08:15:00,59.4,59.1,29.98,SE,133,3.0,4.0,99,0.00,CLR,,0.17,WeatherDisplay:10.37,2013-05-27 13:15:00,
2013-05-27 08:20:00,59.5,59.2,29.98,ESE,120,2.5,3.5,99,0.00,CLR,,0.17,WeatherDisplay:10.37,2013-05-27 13:20:00,
2013-05-27 08:25:00,59.5,59.2,29.97,ESE,118,4.5,5.8,99,0.00,CLR,,0.17,WeatherDisplay:10.37,2013-05-27 13:25:00,
2013-05-27 08:30:00,59.5,59.2,29.97,ESE,113,4.4,5.0,99,0.00,CLR,,0.17,WeatherDisplay:10.37,2013-05-27 13:30:00,
2013-05-27 08:35:00,59.6,59.3,29.98,SE,131,2.0,3.5,99,0.00,CLR,,0.17,WeatherDisplay:10.37,2013-05-27 13:35:00,
2013-05-27 08:40:00,59.6,59.3,29.97,ESE,120,3.0,4.0,99,0.00,CLR,,0.17,WeatherDisplay:10.37,2013-05-27 13:40:00,
2013-05-27 08:45:00,59.7,59.4,29.97,ESE,115,4.4,6.0,99,0.00,CLR,,0.17,WeatherDisplay:10.37,2013-05-27 13:45:00,
2013-05-27 08:50:00,59.9,59.6,29.97,SE,126,3.0,4.6,99,0.00,CLR,,0.17,WeatherDisplay:10.37,2013-05-27 13:50:00,
2013-05-27 08:55:00,60.1,59.8,29.96,SE,129,4.2,5.8,99,0.00,CLR,,0.17,WeatherDisplay:10.37,2013-05-27 13:55:00,
2013-05-27 09:00:00,60.1,59.8,29.96,ESE,113,4.8,6.0,99,0.00,CLR,,0.17,WeatherDisplay:10.37,2013-05-27 14:00:00,
2013-05-27 09:05:00,60.3,60.0,29.95,East,101,2.9,3.5,99,0.00,CLR,,0.17,WeatherDisplay:10.37,2013-05-27 14:05:00,
2013-05-27 09:10:00,60.4,60.1,29.94,ESE,105,7.5,10.4,99,0.00,CLR,,0.17,WeatherDisplay:10.37,2013-05-27 14:10:00,
2013-05-27 09:15:00,60.6,60.3,29.93,East,97,6.6,10.4,99,0.00,CLR,,0.17,WeatherDisplay:10.37,2013-05-27 14:15:00,
2013-05-27 09:20:00,61.0,60.7,29.92,ESE,108,7.7,10.4,99,0.00,CLR,,0.17,WeatherDisplay:10.37,2013-05-27 14:20:00,
2013-05-27 09:25:00,61.0,60.7,29.91,ESE,111,7.8,10.4,99,0.00,CLR,,0.17,WeatherDisplay:10.37,2013-05-27 14:25:00,
2013-05-27 09:30:00,61.2,60.9,29.91,East,99,8.6,10.4,99,0.00,CLR,,0.17,WeatherDisplay:10.37,2013-05-27 14:30:00,
2013-05-27 09:35:00,61.2,60.6,29.90,East,89,9.5,13.8,98,0.00,CLR,,0.17,WeatherDisplay:10.37,2013-05-27 14:35:00,
2013-05-27 09:40:00,61.4,60.8,29.90,SE,132,4.9,6.0,98,0.00,CLR,,0.17,WeatherDisplay:10.37,2013-05-27 14:40:00,
2013-05-27 09:45:00,61.5,60.9,29.91,SE,131,4.8,7.0,98,0.00,CLR,,0.17,WeatherDisplay:10.37,2013-05-27 14:45:00,
2013-05-27 09:50:00,61.4,60.8,29.91,ESE,123,6.6,9.2,98,0.00,CLR,,0.17,WeatherDisplay:10.37,2013-05-27 14:50:00,
2013-05-27 09:55:00,61.4,60.5,29.91,SE,131,4.8,6.9,97,0.00,CLR,,0.17,WeatherDisplay:10.37,2013-05-27 14:55:00,
2013-05-27 10:00:00,61.5,60.6,29.90,ESE,102,5.6,6.9,97,0.00,CLR,,0.17,WeatherDisplay:10.37,2013-05-27 15:00:00,
2013-05-27 10:05:00,61.7,61.1,29.90,ESE,122,7.5,9.2,98,0.00,CLR,,0.17,WeatherDisplay:10.37,2013-05-27 15:05:00,
2013-05-27 10:10:00,61.9,61.0,29.90,ESE,123,5.8,8.1,97,0.00,CLR,,0.17,WeatherDisplay:10.37,2013-05-27 15:10:00,
2013-05-27 10:15:00,62.1,61.2,29.89,ESE,115,6.2,8.1,97,0.00,CLR,,0.17,WeatherDisplay:10.37,2013-05-27 15:15:00,
2013-05-27 10:20:00,62.3,61.4,29.90,ESE,122,7.8,10.4,97,0.00,CLR,,0.17,WeatherDisplay:10.37,2013-05-27 15:20:00,
2013-05-27 10:25:00,62.5,61.6,29.90,ESE,123,5.2,7.0,97,0.00,CLR,,0.17,WeatherDisplay:10.37,2013-05-27 15:25:00,
2013-05-27 10:30:00,62.8,61.9,29.90,ESE,120,5.5,8.1,97,0.00,CLR,,0.17,WeatherDisplay:10.37,2013-05-27 15:30:00,
2013-05-27 10:35:00,63.0,62.1,29.89,East,101,4.8,6.9,97,0.00,CLR,,0.17,WeatherDisplay:10.37,2013-05-27 15:35:00,
2013-05-27 10:40:00,63.2,62.0,29.89,ESE,122,7.0,11.5,96,0.00,CLR,,0.17,WeatherDisplay:10.37,2013-05-27 15:40:00,
2013-05-27 10:45:00,63.5,62.3,29.89,ESE,105,7.6,10.4,96,0.00,CLR,,0.17,WeatherDisplay:10.37,2013-05-27 15:45:00,
2013-05-27 10:50:00,63.8,62.3,29.88,East,98,9.8,11.5,95,0.00,CLR,,0.17,WeatherDisplay:10.37,2013-05-27 15:50:00,
2013-05-27 10:55:00,63.9,62.4,29.88,East,101,9.9,12.7,95,0.00,CLR,,0.17,WeatherDisplay:10.37,2013-05-27 15:55:00,
2013-05-27 11:00:00,64.2,62.7,29.88,ESE,113,10.1,11.5,95,0.00,,,0.17,WeatherDisplay:10.37,2013-05-27 16:00:00,
2013-05-27 11:05:00,64.6,63.1,29.88,SE,126,10.4,11.5,95,0.00,,,0.17,WeatherDisplay:10.37,2013-05-27 16:05:00,
2013-05-27 11:11:00,64.6,62.8,29.89,ESE,120,8.2,11.5,94,0.00,,,0.17,WeatherDisplay:10.37,2013-05-27 16:11:00,
2013-05-27 11:16:00,64.5,62.7,29.90,ESE,104,6.2,8.1,94,0.00,,,0.17,WeatherDisplay:10.37,2013-05-27 16:16:00,
2013-05-27 11:21:00,64.6,62.5,29.90,SE,139,7.0,9.2,93,0.00,,,0.17,WeatherDisplay:10.37,2013-05-27 16:21:00,
2013-05-27 11:26:00,64.7,62.6,29.89,SE,131,6.8,8.1,93,0.00,,,0.17,WeatherDisplay:10.37,2013-05-27 16:26:00,
2013-05-27 11:31:00,64.7,62.6,29.89,SE,133,7.4,11.5,93,0.00,,,0.17,WeatherDisplay:10.37,2013-05-27 16:31:00,
2013-05-27 11:36:00,64.9,62.8,29.89,SE,134,5.8,7.0,93,0.00,,,0.17,WeatherDisplay:10.37,2013-05-27 16:36:00,
2013-05-27 11:41:00,65.0,63.2,29.89,ESE,117,6.3,9.2,94,0.00,,,0.17,WeatherDisplay:10.37,2013-05-27 16:41:00,
2013-05-27 11:46:00,65.1,63.3,29.90,SE,138,6.2,9.2,94,0.00,,,0.17,WeatherDisplay:10.37,2013-05-27 16:46:00,
2013-05-27 11:51:00,65.3,63.2,29.90,ESE,123,5.5,6.9,93,0.00,,,0.17,WeatherDisplay:10.37,2013-05-27 16:51:00,
2013-05-27 11:56:00,65.5,63.4,29.90,SE,129,6.9,9.2,93,0.00,,,0.17,WeatherDisplay:10.37,2013-05-27 16:56:00,
2013-05-27 12:01:00,65.5,63.1,29.90,SE,127,7.1,9.2,92,0.00,,,0.17,WeatherDisplay:10.37,2013-05-27 17:01:00,
2013-05-27 12:06:00,65.7,63.3,29.89,SE,125,7.4,10.4,92,0.00,,,0.17,WeatherDisplay:10.37,2013-05-27 17:06:00,
2013-05-27 12:11:00,65.9,63.5,29.89,SE,127,8.1,10.4,92,0.00,,,0.17,WeatherDisplay:10.37,2013-05-27 17:11:00,
2013-05-27 12:16:00,66.1,63.4,29.89,SE,131,5.9,6.9,91,0.00,,,0.17,WeatherDisplay:10.37,2013-05-27 17:16:00,
2013-05-27 12:21:00,66.3,63.6,29.89,SE,139,7.0,9.2,91,0.00,,,0.17,WeatherDisplay:10.37,2013-05-27 17:21:00,
2013-05-27 12:26:00,66.4,63.7,29.89,ESE,123,6.1,8.1,91,0.00,,,0.17,WeatherDisplay:10.37,2013-05-27 17:26:00,
2013-05-27 12:32:00,66.4,64.0,29.89,SE,132,6.2,8.1,92,0.00,,,0.17,WeatherDisplay:10.37,2013-05-27 17:32:00,
2013-05-27 12:37:00,66.4,64.0,29.89,SE,131,6.5,8.0,92,0.00,,,0.17,WeatherDisplay:10.37,2013-05-27 17:37:00,
2013-05-27 12:42:00,66.6,63.9,29.89,ESE,123,6.4,6.9,91,0.00,,,0.17,WeatherDisplay:10.37,2013-05-27 17:42:00,
2013-05-27 12:47:00,66.8,64.4,29.89,SE,131,4.7,5.8,92,0.00,,,0.17,WeatherDisplay:10.37,2013-05-27 17:47:00,
2013-05-27 12:52:00,66.9,64.2,29.89,ESE,115,5.9,6.9,91,0.00,,,0.17,WeatherDisplay:10.37,2013-05-27 17:52:00,
2013-05-27 12:57:00,67.0,64.3,29.89,ESE,115,5.6,5.8,91,0.00,,,0.17,WeatherDisplay:10.37,2013-05-27 17:57:00,
2013-05-27 13:02:00,66.9,64.2,29.89,SSE,148,8.0,10.4,91,0.00,CLR,,0.17,WeatherDisplay:10.37,2013-05-27 18:02:00,
2013-05-27 13:07:00,66.9,64.5,29.89,SE,138,7.4,9.2,92,0.00,CLR,,0.17,WeatherDisplay:10.37,2013-05-27 18:07:00,
2013-05-27 13:12:00,66.8,64.1,29.89,SSE,155,7.1,8.1,91,0.00,CLR,,0.17,WeatherDisplay:10.37,2013-05-27 18:12:00,
2013-05-27 13:17:00,66.8,64.4,29.89,SE,134,6.7,9.2,92,0.00,CLR,,0.17,WeatherDisplay:10.37,2013-05-27 18:17:00,
2013-05-27 13:22:00,66.8,64.4,29.88,SE,131,6.5,8.1,92,0.00,CLR,,0.17,WeatherDisplay:10.37,2013-05-27 18:22:00,
2013-05-27 13:27:00,66.9,64.5,29.87,ESE,118,7.2,10.4,92,0.00,CLR,,0.17,WeatherDisplay:10.37,2013-05-27 18:27:00,
2013-05-27 13:32:00,67.0,64.6,29.87,SE,125,8.3,10.4,92,0.00,CLR,,0.17,WeatherDisplay:10.37,2013-05-27 18:32:00,
2013-05-27 13:37:00,67.0,64.6,29.87,ESE,123,9.0,11.5,92,0.00,CLR,,0.17,WeatherDisplay:10.37,2013-05-27 18:37:00,
2013-05-27 13:42:00,66.8,64.1,29.86,ESE,106,9.3,11.5,91,0.00,CLR,,0.17,WeatherDisplay:10.37,2013-05-27 18:42:00,
2013-05-27 13:47:00,66.7,64.3,29.86,ESE,120,10.1,13.8,92,0.00,CLR,,0.17,WeatherDisplay:10.37,2013-05-27 18:47:00,
2013-05-27 13:52:00,66.6,63.9,29.86,SE,125,10.3,12.7,91,0.00,CLR,,0.17,WeatherDisplay:10.37,2013-05-27 18:52:00,
2013-05-27 13:57:00,66.6,64.2,29.85,ESE,115,8.0,11.0,92,0.00,CLR,,0.17,WeatherDisplay:10.37,2013-05-27 18:57:00,
2013-05-27 14:02:00,66.6,64.2,29.85,ESE,115,9.5,12.7,92,0.00,CLR,,0.17,WeatherDisplay:10.37,2013-05-27 19:02:00,
2013-05-27 14:07:00,66.7,64.3,29.85,ESE,113,8.6,10.4,92,0.00,CLR,,0.17,WeatherDisplay:10.37,2013-05-27 19:07:00,
2013-05-27 14:12:00,66.8,64.7,29.85,ESE,119,7.5,10.4,93,0.00,CLR,,0.17,WeatherDisplay:10.37,2013-05-27 19:12:00,
2013-05-27 14:17:00,66.8,64.4,29.85,ESE,110,8.1,11.5,92,0.00,CLR,,0.17,WeatherDisplay:10.37,2013-05-27 19:17:00,
2013-05-27 14:22:00,66.7,64.0,29.85,ESE,113,7.1,11.5,91,0.00,CLR,,0.17,WeatherDisplay:10.37,2013-05-27 19:22:00,
2013-05-27 14:27:00,66.7,64.3,29.85,SE,124,5.8,9.2,92,0.00,CLR,,0.17,WeatherDisplay:10.37,2013-05-27 19:27:00,
2013-05-27 14:32:00,66.6,64.2,29.85,ESE,110,6.7,10.4,92,0.00,CLR,,0.17,WeatherDisplay:10.37,2013-05-27 19:32:00,
2013-05-27 14:37:00,66.6,64.2,29.84,East,97,6.4,10.4,92,0.00,CLR,,0.17,WeatherDisplay:10.37,2013-05-27 19:37:00,
2013-05-27 14:42:00,66.6,64.2,29.84,East,87,8.4,10.4,92,0.00,CLR,,0.17,WeatherDisplay:10.37,2013-05-27 19:42:00,
2013-05-27 14:47:00,66.6,64.2,29.83,East,91,10.4,13.8,92,0.00,CLR,,0.17,WeatherDisplay:10.37,2013-05-27 19:47:00,
2013-05-27 14:52:00,66.9,64.8,29.84,East,97,9.0,12.0,93,0.00,CLR,,0.17,WeatherDisplay:10.37,2013-05-27 19:52:00,
2013-05-27 14:57:00,67.7,65.6,29.82,ESE,107,9.4,13.8,93,0.00,CLR,,0.17,WeatherDisplay:10.37,2013-05-27 19:57:00,
2013-05-27 15:02:00,67.9,65.5,29.83,East,101,9.9,13.8,92,0.00,,,0.17,WeatherDisplay:10.37,2013-05-27 20:02:00,
2013-05-27 15:07:00,68.2,65.8,29.83,ESE,104,9.2,13.8,92,0.00,,,0.17,WeatherDisplay:10.37,2013-05-27 20:07:00,
2013-05-27 15:12:00,68.3,65.6,29.83,ESE,118,10.7,12.7,91,0.00,,,0.17,WeatherDisplay:10.37,2013-05-27 20:12:00,
2013-05-27 15:17:00,68.4,65.4,29.82,East,99,11.1,15.0,90,0.00,,,0.17,WeatherDisplay:10.37,2013-05-27 20:17:00,
2013-05-27 15:22:00,68.5,65.8,29.81,SE,125,9.8,12.7,91,0.00,,,0.17,WeatherDisplay:10.37,2013-05-27 20:22:00,
2013-05-27 15:28:00,68.4,65.7,29.81,ESE,107,9.6,12.7,91,0.00,,,0.17,WeatherDisplay:10.37,2013-05-27 20:28:00,
2013-05-27 15:33:00,68.4,65.7,29.81,ESE,110,11.5,13.0,91,0.00,,,0.17,WeatherDisplay:10.37,2013-05-27 20:33:00,
2013-05-27 15:38:00,68.6,65.9,29.80,ESE,114,9.6,15.0,91,0.00,,,0.17,WeatherDisplay:10.37,2013-05-27 20:38:00,
2013-05-27 15:43:00,68.8,65.7,29.80,ESE,117,12.3,15.0,90,0.00,,,0.17,WeatherDisplay:10.37,2013-05-27 20:43:00,
2013-05-27 15:48:00,68.9,65.8,29.79,East,96,12.3,13.8,90,0.00,,,0.17,WeatherDisplay:10.37,2013-05-27 20:48:00,
2013-05-27 15:53:00,69.3,66.2,29.79,East,101,11.8,16.1,90,0.00,,,0.17,WeatherDisplay:10.37,2013-05-27 20:53:00,
2013-05-27 15:58:00,69.4,66.0,29.78,ESE,110,14.0,16.1,89,0.00,,,0.17,WeatherDisplay:10.37,2013-05-27 20:58:00,
2013-05-27 16:03:00,69.9,66.5,29.78,ESE,118,13.3,13.3,89,0.00,,,0.17,WeatherDisplay:10.37,2013-05-27 21:03:00,
2013-05-27 16:08:00,69.9,66.5,29.78,ESE,103,12.6,16.1,89,0.00,,,0.17,WeatherDisplay:10.37,2013-05-27 21:08:00,
2013-05-27 16:13:00,70.0,66.6,29.78,East,97,11.9,15.0,89,0.00,,,0.17,WeatherDisplay:10.37,2013-05-27 21:13:00,
2013-05-27 16:18:00,69.9,66.2,29.78,East,91,12.2,17.3,88,0.00,,,0.17,WeatherDisplay:10.37,2013-05-27 21:18:00,
2013-05-27 16:23:00,70.0,66.3,29.78,East,96,11.0,12.7,88,0.00,,,0.17,WeatherDisplay:10.37,2013-05-27 21:23:00,
2013-05-27 16:28:00,70.0,66.3,29.78,ESE,110,9.4,13.8,88,0.00,,,0.17,WeatherDisplay:10.37,2013-05-27 21:28:00,
2013-05-27 16:33:00,70.1,66.0,29.78,ESE,120,11.7,15.0,87,0.00,,,0.17,WeatherDisplay:10.37,2013-05-27 21:33:00,
2013-05-27 16:38:00,70.1,66.0,29.78,ESE,117,11.5,13.8,87,0.00,,,0.17,WeatherDisplay:10.37,2013-05-27 21:38:00,
2013-05-27 16:43:00,70.4,66.7,29.78,ESE,105,11.8,13.8,88,0.00,,,0.17,WeatherDisplay:10.37,2013-05-27 21:43:00,
2013-05-27 16:48:00,70.6,66.5,29.77,East,85,13.9,18.4,87,0.00,,,0.17,WeatherDisplay:10.37,2013-05-27 21:48:00,
2013-05-27 16:53:00,70.8,67.1,29.77,ESE,117,11.2,12.7,88,0.00,,,0.17,WeatherDisplay:10.37,2013-05-27 21:53:00,
2013-05-27 16:58:00,70.7,66.6,29.78,East,81,12.2,17.3,87,0.00,,,0.17,WeatherDisplay:10.37,2013-05-27 21:58:00,
2013-05-27 17:03:00,70.8,67.1,29.77,ESE,121,10.1,12.7,88,0.00,,,0.17,WeatherDisplay:10.37,2013-05-27 22:03:00,
2013-05-27 17:08:00,70.8,66.7,29.77,ESE,114,11.7,16.1,87,0.00,,,0.17,WeatherDisplay:10.37,2013-05-27 22:08:00,
2013-05-27 17:13:00,70.6,66.5,29.77,ESE,107,11.0,13.8,87,0.00,,,0.17,WeatherDisplay:10.37,2013-05-27 22:13:00,
2013-05-27 17:18:00,70.4,66.3,29.77,ESE,103,11.1,16.1,87,0.00,,,0.17,WeatherDisplay:10.37,2013-05-27 22:18:00,
2013-05-27 17:23:00,70.4,66.7,29.76,ESE,112,10.7,12.0,88,0.00,,,0.17,WeatherDisplay:10.37,2013-05-27 22:23:00,
2013-05-27 17:28:00,70.6,66.2,29.76,East,101,13.9,15.0,86,0.00,,,0.17,WeatherDisplay:10.37,2013-05-27 22:28:00,
2013-05-27 17:33:00,70.6,66.5,29.76,SE,127,10.6,12.0,87,0.00,,,0.17,WeatherDisplay:10.37,2013-05-27 22:33:00,
2013-05-27 17:38:00,70.9,66.5,29.75,ESE,113,12.1,18.4,86,0.00,,,0.17,WeatherDisplay:10.37,2013-05-27 22:38:00,
2013-05-27 17:44:00,70.9,66.8,29.76,ESE,107,11.3,12.7,87,0.00,,,0.17,WeatherDisplay:10.37,2013-05-27 22:44:00,
2013-05-27 17:49:00,70.5,66.1,29.77,East,89,11.1,12.7,86,0.00,,,0.17,WeatherDisplay:10.37,2013-05-27 22:49:00,
2013-05-27 17:54:00,70.3,66.2,29.77,SE,127,10.8,13.0,87,0.00,,,0.17,WeatherDisplay:10.37,2013-05-27 22:54:00,
2013-05-27 17:59:00,70.3,66.2,29.76,ESE,106,10.9,13.8,87,0.00,,,0.17,WeatherDisplay:10.37,2013-05-27 22:59:00,
2013-05-27 18:04:00,70.5,66.4,29.76,ESE,113,11.1,15.0,87,0.00,,,0.17,WeatherDisplay:10.37,2013-05-27 23:04:00,
2013-05-27 18:09:00,70.8,66.1,29.75,ESE,113,12.4,15.0,85,0.00,,,0.17,WeatherDisplay:10.37,2013-05-27 23:09:00,
2013-05-27 18:14:00,70.8,66.4,29.75,ESE,106,11.2,12.7,86,0.00,,,0.17,WeatherDisplay:10.37,2013-05-27 23:14:00,
2013-05-27 18:19:00,70.7,66.3,29.75,ESE,118,11.9,13.8,86,0.00,,,0.17,WeatherDisplay:10.37,2013-05-27 23:19:00,
2013-05-27 18:24:00,70.7,66.3,29.75,ESE,123,11.3,12.7,86,0.00,,,0.17,WeatherDisplay:10.37,2013-05-27 23:24:00,
2013-05-27 18:29:00,70.7,66.6,29.75,ESE,110,10.8,15.0,87,0.00,,,0.17,WeatherDisplay:10.37,2013-05-27 23:29:00,
2013-05-27 18:34:00,70.6,66.2,29.75,ESE,123,10.8,12.7,86,0.00,,,0.17,WeatherDisplay:10.37,2013-05-27 23:34:00,
2013-05-27 18:39:00,70.3,65.9,29.75,ESE,114,8.7,12.7,86,0.00,,,0.17,WeatherDisplay:10.37,2013-05-27 23:39:00,
2013-05-27 18:44:00,70.1,66.0,29.75,ESE,117,8.6,10.4,87,0.00,,,0.17,WeatherDisplay:10.37,2013-05-27 23:44:00,
2013-05-27 18:49:00,69.9,66.2,29.75,East,101,9.9,11.5,88,0.00,,,0.17,WeatherDisplay:10.37,2013-05-27 23:49:00,
2013-05-27 18:54:00,69.7,66.0,29.75,ESE,104,9.6,11.5,88,0.00,,,0.17,WeatherDisplay:10.37,2013-05-27 23:54:00,
2013-05-27 18:59:00,69.5,65.8,29.76,ESE,117,9.3,11.5,88,0.00,,,0.17,WeatherDisplay:10.37,2013-05-27 23:59:00,
2013-05-27 19:04:00,69.4,66.0,29.76,East,98,6.7,11.5,89,0.00,,,0.17,WeatherDisplay:10.37,2013-05-28 00:04:00,
2013-05-27 19:09:00,69.3,65.9,29.76,ESE,106,7.1,10.4,89,0.00,,,0.17,WeatherDisplay:10.37,2013-05-28 00:09:00,
2013-05-27 19:14:00,69.3,65.9,29.76,East,89,7.7,10.4,89,0.00,,,0.17,WeatherDisplay:10.37,2013-05-28 00:14:00,
2013-05-27 19:19:00,69.2,65.8,29.77,ESE,113,7.9,10.4,89,0.00,,,0.17,WeatherDisplay:10.37,2013-05-28 00:19:00,
2013-05-27 19:24:00,69.1,65.7,29.77,ESE,112,7.3,10.4,89,0.00,,,0.17,WeatherDisplay:10.37,2013-05-28 00:24:00,
2013-05-27 19:30:00,68.9,65.8,29.77,ESE,123,7.0,9.0,90,0.00,,,0.17,WeatherDisplay:10.37,2013-05-28 00:30:00,
2013-05-27 19:35:00,68.9,65.8,29.78,SE,126,6.9,11.5,90,0.00,,,0.17,WeatherDisplay:10.37,2013-05-28 00:35:00,
2013-05-27 19:40:00,68.7,65.6,29.78,ESE,118,6.1,10.4,90,0.00,,,0.17,WeatherDisplay:10.37,2013-05-28 00:40:00,
2013-05-27 19:45:00,68.6,65.5,29.78,ESE,106,5.5,6.9,90,0.00,,,0.17,WeatherDisplay:10.37,2013-05-28 00:45:00,
2013-05-27 19:50:00,68.5,65.4,29.78,East,100,6.9,9.2,90,0.00,,,0.17,WeatherDisplay:10.37,2013-05-28 00:50:00,
2013-05-27 19:55:00,68.4,65.7,29.78,East,89,5.5,9.0,91,0.00,,,0.17,WeatherDisplay:10.37,2013-05-28 00:55:00,
2013-05-27 20:00:00,68.3,65.6,29.78,ESE,113,4.9,6.9,91,0.00,,,0.17,WeatherDisplay:10.37,2013-05-28 01:00:00,
2013-05-27 20:05:00,68.1,65.4,29.78,ESE,117,4.8,6.0,91,0.00,,,0.17,WeatherDisplay:10.37,2013-05-28 01:05:00,
2013-05-27 20:10:00,68.1,65.7,29.78,ESE,110,6.0,8.1,92,0.00,,,0.17,WeatherDisplay:10.37,2013-05-28 01:10:00,
2013-05-27 20:15:00,68.0,65.6,29.78,East,99,5.1,6.9,92,0.00,,,0.17,WeatherDisplay:10.37,2013-05-28 01:15:00,
2013-05-27 20:20:00,67.9,65.5,29.78,ESE,113,5.1,7.0,92,0.00,,,0.17,WeatherDisplay:10.37,2013-05-28 01:20:00,
2013-05-27 20:25:00,67.9,65.5,29.77,ESE,108,6.1,9.2,92,0.00,,,0.17,WeatherDisplay:10.37,2013-05-28 01:25:00,
2013-05-27 20:30:00,67.7,65.6,29.77,ESE,103,5.0,6.9,93,0.00,,,0.17,WeatherDisplay:10.37,2013-05-28 01:30:00,
2013-05-27 20:35:00,67.6,65.5,29.77,ESE,110,6.1,9.2,93,0.00,,,0.17,WeatherDisplay:10.37,2013-05-28 01:35:00,
2013-05-27 20:40:00,67.5,65.4,29.77,East,87,5.5,6.9,93,0.00,,,0.17,WeatherDisplay:10.37,2013-05-28 01:40:00,
2013-05-27 20:45:00,67.5,65.4,29.77,ESE,112,5.9,8.1,93,0.00,,,0.17,WeatherDisplay:10.37,2013-05-28 01:45:00,
2013-05-27 20:50:00,67.4,65.3,29.77,ESE,118,5.4,7.0,93,0.00,,,0.17,WeatherDisplay:10.37,2013-05-28 01:50:00,
2013-05-27 20:55:00,67.3,65.2,29.77,East,100,4.4,5.8,93,0.00,,,0.17,WeatherDisplay:10.37,2013-05-28 01:55:00,
2013-05-27 21:00:00,67.2,65.4,29.77,ESE,113,3.8,4.6,94,0.00,,,0.17,WeatherDisplay:10.37,2013-05-28 02:00:00,
2013-05-27 21:05:00,67.1,65.3,29.78,ESE,104,4.1,5.8,94,0.01,RA,,0.18,WeatherDisplay:10.37,2013-05-28 02:05:00,
2013-05-27 21:10:00,67.0,65.2,29.77,East,95,4.9,5.8,94,0.01,RA,,0.18,WeatherDisplay:10.37,2013-05-28 02:10:00,
2013-05-27 21:15:00,66.9,65.4,29.78,ESE,108,3.1,3.5,95,0.02,RA,,0.19,WeatherDisplay:10.37,2013-05-28 02:15:00,
2013-05-27 21:20:00,66.8,65.3,29.78,ESE,108,2.7,3.5,95,0.03,RA,,0.20,WeatherDisplay:10.37,2013-05-28 02:20:00,
2013-05-27 21:25:00,66.7,65.2,29.78,ESE,113,2.8,4.0,95,0.05,RA,,0.22,WeatherDisplay:10.37,2013-05-28 02:25:00,
2013-05-27 21:30:00,66.7,65.5,29.78,East,93,1.9,3.5,96,0.05,RA,,0.22,WeatherDisplay:10.37,2013-05-28 02:30:00,
2013-05-27 21:35:00,66.6,65.4,29.78,ESE,102,2.5,3.5,96,0.05,,,0.22,WeatherDisplay:10.37,2013-05-28 02:35:00,
2013-05-27 21:40:00,66.5,65.3,29.78,ESE,117,2.7,4.6,96,0.05,,,0.22,WeatherDisplay:10.37,2013-05-28 02:40:00,
2013-05-27 21:45:00,66.4,65.2,29.78,ESE,106,2.5,3.5,96,0.05,,,0.22,WeatherDisplay:10.37,2013-05-28 02:45:00,
2013-05-27 21:50:00,66.4,65.2,29.78,ESE,117,3.9,5.0,96,0.05,,,0.22,WeatherDisplay:10.37,2013-05-28 02:50:00,
2013-05-27 21:55:00,66.4,65.2,29.78,SE,125,5.1,5.8,96,0.05,,,0.22,WeatherDisplay:10.37,2013-05-28 02:55:00,
2013-05-27 22:00:00,66.4,65.2,29.78,SE,131,4.3,5.8,96,0.05,,,0.22,WeatherDisplay:10.37,2013-05-28 03:00:00,
2013-05-27 22:05:00,66.3,65.1,29.79,SE,136,4.5,5.8,96,0.04,,,0.22,WeatherDisplay:10.37,2013-05-28 03:05:00,
2013-05-27 22:11:00,66.3,64.8,29.79,SE,133,5.0,7.0,95,0.04,,,0.22,WeatherDisplay:10.37,2013-05-28 03:11:00,
2013-05-27 22:16:00,66.3,64.8,29.79,SE,133,5.6,8.1,95,0.03,,,0.22,WeatherDisplay:10.37,2013-05-28 03:16:00,
2013-05-27 22:21:00,66.3,64.8,29.79,ESE,117,4.2,5.8,95,0.02,,,0.22,WeatherDisplay:10.37,2013-05-28 03:21:00,
2013-05-27 22:26:00,66.2,64.7,29.79,ESE,110,4.1,5.8,95,0.00,,,0.22,WeatherDisplay:10.37,2013-05-28 03:26:00,
2013-05-27 22:31:00,66.2,64.7,29.79,ESE,115,5.0,5.8,95,0.00,,,0.22,WeatherDisplay:10.37,2013-05-28 03:31:00,
2013-05-27 22:36:00,66.2,64.7,29.79,ESE,123,4.5,4.6,95,0.00,,,0.22,WeatherDisplay:10.37,2013-05-28 03:36:00,
2013-05-27 22:41:00,66.2,64.7,29.79,ESE,113,4.2,5.0,95,0.00,,,0.22,WeatherDisplay:10.37,2013-05-28 03:41:00,
2013-05-27 22:46:00,66.1,64.6,29.79,ESE,107,4.4,5.8,95,0.00,,,0.22,WeatherDisplay:10.37,2013-05-28 03:46:00,
2013-05-27 22:51:00,66.0,64.5,29.79,ESE,116,4.5,4.6,95,0.00,,,0.22,WeatherDisplay:10.37,2013-05-28 03:51:00,
2013-05-27 22:56:00,66.0,64.5,29.79,ESE,122,4.7,5.8,95,0.00,,,0.22,WeatherDisplay:10.37,2013-05-28 03:56:00,
2013-05-27 23:01:00,66.0,64.5,29.79,SE,125,3.0,5.8,95,0.00,,,0.22,WeatherDisplay:10.37,2013-05-28 04:01:00,
2013-05-27 23:02:00,66.0,64.5,29.79,East,99,2.7,4.0,95,0.00,,,0.22,WeatherDisplay:10.37,2013-05-28 04:02:00,
2013-05-27 23:07:00,65.9,64.4,29.78,ESE,107,2.0,3.5,95,0.00,,,0.22,WeatherDisplay:10.37,2013-05-28 04:07:00,
2013-05-27 23:12:00,65.9,64.4,29.78,ESE,106,3.2,5.0,95,0.00,,,0.22,WeatherDisplay:10.37,2013-05-28 04:12:00,
2013-05-27 23:17:00,65.7,64.5,29.78,ESE,120,3.1,3.5,96,0.00,,,0.22,WeatherDisplay:10.37,2013-05-28 04:17:00,
2013-05-27 23:22:00,65.6,64.4,29.77,ESE,116,4.7,5.8,96,0.00,,,0.22,WeatherDisplay:10.37,2013-05-28 04:22:00,
2013-05-27 23:27:00,65.6,64.4,29.77,ESE,115,3.6,5.0,96,0.00,,,0.22,WeatherDisplay:10.37,2013-05-28 04:27:00,
2013-05-27 23:32:00,65.5,64.3,29.77,ESE,113,3.3,4.6,96,0.00,,,0.22,WeatherDisplay:10.37,2013-05-28 04:32:00,
2013-05-27 23:37:00,65.5,64.3,29.77,East,86,1.8,3.5,96,0.00,,,0.22,WeatherDisplay:10.37,2013-05-28 04:37:00,
2013-05-27 23:42:00,65.5,64.3,29.77,ESE,106,1.7,3.5,96,0.00,,,0.22,WeatherDisplay:10.37,2013-05-28 04:42:00,
2013-05-27 23:47:00,65.5,64.3,29.77,East,89,2.5,3.5,96,0.00,,,0.22,WeatherDisplay:10.37,2013-05-28 04:47:00,
2013-05-27 23:52:00,65.5,64.3,29.77,ESE,120,1.6,3.5,96,0.00,,,0.22,WeatherDisplay:10.37,2013-05-28 04:52:00,
2013-05-27 23:57:00,65.5,64.3,29.77,ESE,120,1.6,2.3,96,0.00,,,0.22,WeatherDisplay:10.37,2013-05-28 04:57:00,